Weather History for Pittsfield, MA

Change the Weather History Date:

Saturday, August 31, 2013

  Actual Average Record
Temperature  
Mean Temperature 74 °F 64 °F  
Max Temperature 80 °F 75 °F 90 °F (2010)
Min Temperature 68 °F 53 °F 32 °F (1965)
Degree Days  
Heating Degree Days 0 3  
Month to date heating degree days 48 43  
Since 1 June heating degree days 164 179  
Since 1 July heating degree days 56 78  
Cooling Degree Days 9 2  
Month to date cooling degree days 64 93  
Year to date cooling degree days 400 270  
Since 1 June cooling degree days 375 257  
Growing Degree Days 24 (Base 50)    
Moisture  
Dew Point 68 °F    
Average Humidity 86    
Maximum Humidity 97    
Minimum Humidity 74    
Precipitation  
Precipitation 0.83 in 0.12 in 2.06 in (1954)
Month to date precipitation 4.83 4.09  
Year to date precipitation 28.10 29.78  
Sea Level Pressure  
Sea Level Pressure 29.80 in    
Wind  
Wind Speed 5 mph (SSW)    
Max Wind Speed 20 mph    
Max Gust Speed 29 mph    
Visibility 4 miles    
Events Rain , Thunderstorm    
T = Trace of Precipitation, MM = Missing Value Source: NWS Daily Summary

Daily Weather History Graph

Daily Weather History Graph

Search for Another Location

Airport:

Trip Planner

Search our weather history database for the weather conditions in past years. The results will help you decide how hot, cold, wet, or windy it might be!

Date:

Astronomy

Aug. 31, 2013 Rise Set
Actual Time 6:17 AM EDT 7:28 PM EDT
Civil Twilight 5:48 AM EDT 7:57 PM EDT
Nautical Twilight 5:13 AM EDT 8:32 PM EDT
Astronomical Twilight 4:37 AM EDT 9:08 PM EDT
Moon 1:40 AM EDT (8/31) 4:28 PM EDT (8/31)
Length of Visible Light 14h 09m
Length of Day
13h 11m
Waning Crescent, 21% of the Moon is Illuminated
Aug 31
Waning Crescent
Sep 5
New
Sep 12
First Quarter
Sep 19
Full
Sep 26
Last Quarter

Hourly Weather History & Observations

Time (EDT) Temp. Dew Point Humidity Pressure Visibility Wind Dir Wind Speed Gust Speed Precip Events Conditions
12:54 AM 68.0 °F 66.0 °F 93% 29.77 in 5.0 mi Calm Calm - N/A   Partly Cloudy
1:54 AM 71.1 °F 68.0 °F 90% 29.75 in 5.0 mi South 8.1 mph - N/A   Partly Cloudy
2:54 AM 72.0 °F 68.0 °F 87% 29.74 in 5.0 mi SW 10.4 mph - N/A   Partly Cloudy
3:54 AM 72.0 °F 68.0 °F 87% 29.74 in 5.0 mi WSW 5.8 mph - N/A   Mostly Cloudy
4:54 AM 71.1 °F 68.0 °F 90% 29.75 in 4.0 mi SW 5.8 mph - 0.00 in Rain Light Rain
5:11 AM 71.6 °F 68.0 °F 88% 29.83 in 4.0 mi WSW 4.6 mph - 0.02 in   Mostly Cloudy
5:50 AM 69.8 °F 68.0 °F 94% 29.83 in 4.0 mi WSW 4.6 mph - 0.02 in Rain Light Rain
5:54 AM 70.0 °F 68.0 °F 93% 29.75 in 4.0 mi WSW 5.8 mph - 0.02 in Rain Light Rain
6:24 AM 69.8 °F 68.0 °F 94% 29.84 in 3.0 mi SW 3.5 mph - 0.01 in Rain Light Rain
6:43 AM 69.8 °F 68.0 °F 94% 29.84 in 2.0 mi Calm Calm - 0.01 in   Mostly Cloudy
6:50 AM 69.8 °F 68.0 °F 94% 29.84 in 1.5 mi Calm Calm - 0.01 in   Mostly Cloudy
6:54 AM 69.1 °F 68.0 °F 96% 29.76 in 1.8 mi Calm Calm - 0.01 in   Mostly Cloudy
7:06 AM 69.8 °F 68.0 °F 94% 29.83 in 3.0 mi Calm Calm - N/A   Mostly Cloudy
7:41 AM 69.8 °F 68.0 °F 94% 29.84 in 2.5 mi Calm Calm - N/A   Mostly Cloudy
7:54 AM 70.0 °F 68.0 °F 93% 29.76 in 2.0 mi Calm Calm - N/A   Overcast
8:08 AM 71.6 °F 68.0 °F 88% 29.84 in 3.0 mi Variable 4.6 mph - 0.00 in Rain Light Rain
8:19 AM 71.6 °F 68.0 °F 88% 29.84 in 3.0 mi SW 4.6 mph - 0.00 in Rain Light Rain
8:41 AM 71.6 °F 69.8 °F 94% 29.84 in 4.0 mi Calm Calm - 0.00 in   Mostly Cloudy
8:54 AM 72.0 °F 68.0 °F 87% 29.76 in 4.0 mi Calm Calm - 0.00 in   Mostly Cloudy
9:54 AM 73.0 °F 69.1 °F 87% 29.77 in 4.0 mi Calm Calm - N/A   Mostly Cloudy
10:54 AM 73.9 °F 69.1 °F 85% 29.77 in 5.0 mi SSE 5.8 mph - N/A   Haze
11:54 AM 73.9 °F 69.1 °F 85% 29.76 in 5.0 mi Calm Calm - 0.00 in   Haze
12:01 PM 73.4 °F 69.8 °F 88% 29.84 in 5.0 mi ESE 3.5 mph - N/A   Haze
12:54 PM 77.0 °F 70.0 °F 79% 29.75 in 5.0 mi WSW 8.1 mph - N/A   Haze
1:02 PM 77.0 °F 69.8 °F 78% 29.83 in 6.0 mi WSW 6.9 mph - N/A   Haze
1:29 PM 78.8 °F 69.8 °F 74% 29.82 in 5.0 mi South 6.9 mph - N/A   Haze
1:54 PM 78.1 °F 70.0 °F 76% 29.73 in 5.0 mi SSW 6.9 mph - N/A   Haze
2:04 PM 78.8 °F 69.8 °F 74% 29.82 in 5.0 mi South 9.2 mph - N/A   Haze
2:24 PM 78.8 °F 69.8 °F 74% 29.82 in 6.0 mi SSW 8.1 mph - N/A   Haze
2:51 PM 78.8 °F 69.8 °F 74% 29.82 in 6.0 mi SSW 6.9 mph - N/A   Haze
2:54 PM 79.0 °F 69.1 °F 72% 29.73 in 6.0 mi SW 9.2 mph - N/A   Haze
3:54 PM 78.1 °F 71.1 °F 79% 29.72 in 5.0 mi South 4.6 mph - N/A   Haze
4:04 PM 78.8 °F 71.6 °F 78% 29.80 in 5.0 mi South 6.9 mph - N/A   Haze
4:44 PM 77.0 °F 69.8 °F 78% 29.80 in 5.0 mi South 9.2 mph - N/A   Haze
4:54 PM 77.0 °F 70.0 °F 79% 29.72 in 5.0 mi South 8.1 mph - N/A   Haze
5:27 PM 75.2 °F 69.8 °F 83% 29.81 in 5.0 mi SSW 5.8 mph - N/A Thunderstorm Haze
5:54 PM 72.0 °F 66.0 °F 81% 29.75 in 9.0 mi NW 10.4 mph 17.3 mph N/A Thunderstorm Mostly Cloudy
6:26 PM 69.8 °F 66.2 °F 88% 29.82 in 2.5 mi NNW 3.5 mph - 0.05 in Rain , Thunderstorm Light Thunderstorms and Rain
6:32 PM 69.8 °F 66.2 °F 88% 29.82 in 5.0 mi Calm Calm - 0.06 in Rain , Thunderstorm Light Thunderstorms and Rain
6:54 PM 69.1 °F 66.9 °F 93% 29.74 in 6.0 mi East 3.5 mph - 0.06 in Thunderstorm Mostly Cloudy
7:15 PM 68.0 °F 66.2 °F 94% 29.82 in 2.5 mi North 4.6 mph - 0.06 in Rain , Thunderstorm Thunderstorms and Rain
7:24 PM 68.0 °F 66.2 °F 94% 29.81 in 1.8 mi Calm Calm - 0.13 in Rain , Thunderstorm Heavy Thunderstorms and Rain
7:29 PM 68.0 °F 66.2 °F 94% 29.84 in 2.0 mi WSW 11.5 mph - 0.16 in Rain , Thunderstorm Thunderstorms and Rain
7:36 PM 69.8 °F 66.2 °F 88% 29.83 in 0.8 mi WSW 18.4 mph 28.8 mph 0.37 in Rain , Thunderstorm Heavy Thunderstorms and Rain
7:44 PM 69.8 °F 66.2 °F 88% 29.83 in 1.0 mi SW 12.7 mph 23.0 mph 0.51 in Rain , Thunderstorm Heavy Thunderstorms and Rain
7:54 PM 71.1 °F 68.0 °F 90% 29.77 in 2.0 mi WSW 13.8 mph 24.2 mph 0.59 in Rain , Thunderstorm Heavy Thunderstorms and Rain
8:12 PM 69.8 °F 66.2 °F 88% 29.83 in 4.0 mi SW 9.2 mph - 0.04 in Rain , Thunderstorm Light Thunderstorms and Rain
8:54 PM 69.1 °F 66.0 °F 90% 29.76 in 9.0 mi Calm Calm - 0.06 in Rain Light Rain
9:20 PM 68.0 °F 66.2 °F 94% 29.85 in 3.0 mi Calm Calm - 0.04 in Rain Rain
9:43 PM 68.0 °F 66.2 °F 94% 29.86 in 2.5 mi Calm Calm - 0.08 in Rain Light Rain
9:47 PM 68.0 °F 66.2 °F 94% 29.85 in 3.0 mi SSE 4.6 mph - 0.08 in Rain Light Rain
9:54 PM 68.0 °F 66.9 °F 96% 29.78 in 4.0 mi South 3.5 mph - 0.08 in Rain Light Rain
10:05 PM 68.0 °F 66.2 °F 94% 29.85 in 5.0 mi Calm Calm - 0.00 in   Overcast
10:40 PM 68.0 °F 66.2 °F 94% 29.85 in 4.0 mi SSE 3.5 mph - 0.00 in   Overcast
10:50 PM 69.8 °F 68.0 °F 94% 29.86 in 5.0 mi Calm Calm - 0.00 in   Overcast
10:54 PM 69.1 °F 68.0 °F 96% 29.78 in 5.0 mi Calm Calm - 0.00 in   Overcast
11:09 PM 69.8 °F 66.2 °F 88% 29.86 in 3.0 mi North 3.5 mph - N/A   Overcast
11:22 PM 68.0 °F 66.2 °F 94% 29.86 in 2.0 mi Calm Calm - N/A   Overcast
11:50 PM 69.8 °F 66.2 °F 88% 29.86 in 4.0 mi Calm Calm - 0.01 in Rain Light Rain
11:54 PM 68.0 °F 66.9 °F 96% 29.78 in 3.0 mi Calm Calm - 0.01 in   Overcast